When you browse on this site, cookies collect data to enhance your experience and personalize the content and advertising you see.
Visit our Privacy Policy to learn more. By continuing to use the site, you agree to this use of cookies and data.
  • In Portugal
  • List of Countries
  • For 7 days
  • Water Temperature
  • Satellite Maps
  • Weather Map
  • Weather Widgets
  • user-avatar
    Login

    Hourly Weather Shumen

    Today, 18 November, Sunday

    Time Temperature Precipitation Wind Pressure Humidity
    00:00 -4°C° 0 mm 3 mps 740 mmHg 83%
    01:00 -4°C° 0 mm 3 mps 739 mmHg 84%
    02:00 -4°C° 0 mm 3 mps 739 mmHg 85%
    03:00 -4°C° 0 mm 3 mps 739 mmHg 86%
    04:00 -4°C° 0 mm 3 mps 738 mmHg 87%
    05:00 -4°C° 0 mm 2 mps 738 mmHg 87%
    06:00 -3°C° 0 mm 2 mps 738 mmHg 87%
    07:00 -3°C° 0 mm 2 mps 738 mmHg 87%
    08:00 -3°C° 0 mm 2 mps 737 mmHg 86%
    09:00 -2°C° 0 mm 2 mps 737 mmHg 82%
    10:00 +1°C° 0 mm 2 mps 737 mmHg 77%
    11:00 +2°C° 0 mm 3 mps 737 mmHg 73%
    12:00 +2°C° 0 mm 3 mps 736 mmHg 72%
    13:00 +3°C° 0 mm 3 mps 736 mmHg 71%
    14:00 +4°C° 0 mm 4 mps 735 mmHg 70%
    15:00 +4°C° 0.2 mm 4 mps 734 mmHg 74%
    16:00 +3°C° 0.2 mm 4 mps 733 mmHg 79%
    17:00 +3°C° 0.2 mm 4 mps 733 mmHg 83%
    18:00 +3°C° 1.2 mm 4 mps 732 mmHg 85%
    19:00 +2°C° 1.2 mm 5 mps 732 mmHg 87%
    20:00 +2°C° 1.2 mm 5 mps 731 mmHg 89%
    21:00 +2°C° 1.9 mm 6 mps 731 mmHg 90%
    22:00 +2°C° 1.9 mm 6 mps 730 mmHg 90%
    23:00 +3°C° 1.9 mm 6 mps 730 mmHg 91%

    Tomorrow, 19 November, Monday

    Time Temperature Precipitation Wind Pressure Humidity
    00:00 +3°C° 1.7 mm 6 mps 729 mmHg 91%
    01:00 +3°C° 1.7 mm 6 mps 728 mmHg 91%
    02:00 +3°C° 1.7 mm 7 mps 727 mmHg 92%
    03:00 +3°C° 2.2 mm 6 mps 727 mmHg 92%
    04:00 +3°C° 2.2 mm 6 mps 726 mmHg 92%
    05:00 +3°C° 2.2 mm 6 mps 726 mmHg 92%
    06:00 +3°C° 0.5 mm 6 mps 726 mmHg 92%
    07:00 +3°C° 0.5 mm 6 mps 725 mmHg 91%
    08:00 +2°C° 0.5 mm 6 mps 725 mmHg 91%
    09:00 +2°C° 0.1 mm 5 mps 726 mmHg 90%
    10:00 +2°C° 0.1 mm 5 mps 726 mmHg 88%
    11:00 +1°C° 0.1 mm 4 mps 727 mmHg 87%
    12:00 +1°C° 0 mm 4 mps 727 mmHg 85%
    13:00 +1°C° 0 mm 4 mps 728 mmHg 83%
    14:00 +3°C° 0 mm 4 mps 728 mmHg 82%
    15:00 +1°C° 0 mm 4 mps 729 mmHg 83%
    16:00 +1°C° 0 mm 4 mps 730 mmHg 85%
    17:00 +1°C° 0 mm 3 mps 730 mmHg 86%
    18:00 +1°C° 0 mm 3 mps 731 mmHg 87%
    19:00 0°C° 0 mm 3 mps 731 mmHg 88%
    20:00 +1°C° 0 mm 2 mps 732 mmHg 89%
    21:00 +1°C° 0 mm 2 mps 732 mmHg 89%
    22:00 +1°C° 0 mm 2 mps 733 mmHg 89%
    23:00 +2°C° 0 mm 1 mps 733 mmHg 89%

    Day after tomorrow, 20 November, Tuesday

    Time Temperature Precipitation Wind Pressure Humidity
    00:00 +2°C° 0 mm 1 mps 733 mmHg 90%
    01:00 +2°C° 0 mm 1 mps 734 mmHg 91%
    02:00 +1°C° 0 mm 1 mps 734 mmHg 91%
    03:00 +1°C° 0 mm 1 mps 734 mmHg 92%
    04:00 -1°C° 0 mm 2 mps 734 mmHg 92%
    05:00 -1°C° 0 mm 2 mps 734 mmHg 93%
    06:00 -1°C° 0 mm 2 mps 734 mmHg 91%
    07:00 -1°C° 0 mm 2 mps 734 mmHg 89%
    08:00 0°C° 0 mm 3 mps 734 mmHg 86%
    09:00 0°C° 0.1 mm 3 mps 734 mmHg 83%
    10:00 +1°C° 0.1 mm 3 mps 734 mmHg 80%
    11:00 +2°C° 0.1 mm 3 mps 735 mmHg 76%
    12:00 +3°C° 0.1 mm 4 mps 734 mmHg 77%
    13:00 +4°C° 0.1 mm 4 mps 734 mmHg 77%
    14:00 +4°C° 0.1 mm 4 mps 733 mmHg 77%
    15:00 +4°C° 0.2 mm 4 mps 733 mmHg 81%
    16:00 +4°C° 0.2 mm 4 mps 733 mmHg 86%
    17:00 +4°C° 0.2 mm 4 mps 732 mmHg 90%
    18:00 +5°C° 0.5 mm 3 mps 732 mmHg 91%
    19:00 +5°C° 0.5 mm 3 mps 732 mmHg 93%
    20:00 +5°C° 0.5 mm 3 mps 732 mmHg 95%
    21:00 +5°C° 0.7 mm 3 mps 732 mmHg 95%
    22:00 +7°C° 0.7 mm 3 mps 731 mmHg 96%
    23:00 +7°C° 0.7 mm 3 mps 731 mmHg 97%

    21 November, Wednesday

    Time Temperature Precipitation Wind Pressure Humidity
    00:00 +8°C° 0.4 mm 3 mps 731 mmHg 97%
    01:00 +8°C° 0.4 mm 3 mps 730 mmHg 97%
    02:00 +8°C° 0.4 mm 2 mps 730 mmHg 97%
    03:00 +8°C° 0.4 mm 2 mps 729 mmHg 97%
    04:00 +9°C° 0.4 mm 2 mps 729 mmHg 97%
    05:00 +9°C° 0.4 mm 2 mps 729 mmHg 98%
    06:00 +9°C° 0.3 mm 2 mps 728 mmHg 98%
    07:00 +9°C° 0.3 mm 2 mps 728 mmHg 98%
    08:00 +9°C° 0.3 mm 2 mps 728 mmHg 98%
    09:00 +10°C° 0.5 mm 2 mps 728 mmHg 97%
    10:00 +10°C° 0.5 mm 2 mps 728 mmHg 97%
    11:00 +12°C° 0.5 mm 2 mps 728 mmHg 97%
    12:00 +12°C° 1.4 mm 2 mps 727 mmHg 97%
    13:00 +12°C° 1.4 mm 2 mps 727 mmHg 97%
    14:00 +12°C° 1.4 mm 2 mps 726 mmHg 97%
    15:00 +10°C° 1.9 mm 2 mps 726 mmHg 97%
    16:00 +10°C° 1.9 mm 2 mps 726 mmHg 97%
    17:00 +10°C° 1.9 mm 2 mps 726 mmHg 97%
    18:00 +9°C° 1.3 mm 2 mps 726 mmHg 97%
    19:00 +9°C° 1.3 mm 3 mps 727 mmHg 96%
    20:00 +9°C° 1.3 mm 3 mps 727 mmHg 95%
    21:00 +7°C° 0.9 mm 4 mps 727 mmHg 94%
    22:00 +7°C° 0.9 mm 4 mps 728 mmHg 93%
    23:00 +6°C° 0.9 mm 5 mps 728 mmHg 92%

    22 November, Thursday

    Time Temperature Precipitation Wind Pressure Humidity
    00:00 +6°C° 0.4 mm 5 mps 728 mmHg 92%
    01:00 +4°C° 0.4 mm 6 mps 728 mmHg 91%
    02:00 +4°C° 0.4 mm 6 mps 728 mmHg 90%
    03:00 +3°C° 0.3 mm 6 mps 729 mmHg 90%
    04:00 +2°C° 0.3 mm 6 mps 729 mmHg 90%
    05:00 +2°C° 0.3 mm 6 mps 729 mmHg 89%
    06:00 +1°C° 0.4 mm 5 mps 730 mmHg 89%
    07:00 +1°C° 0.4 mm 5 mps 730 mmHg 89%
    08:00 +1°C° 0.4 mm 5 mps 731 mmHg 89%
    09:00 +1°C° 0.4 mm 5 mps 731 mmHg 88%
    10:00 +1°C° 0.4 mm 5 mps 732 mmHg 88%
    11:00 +1°C° 0.4 mm 4 mps 732 mmHg 87%
    12:00 +1°C° 0.4 mm 4 mps 732 mmHg 87%
    13:00 +1°C° 0.4 mm 4 mps 733 mmHg 87%
    14:00 +1°C° 0.4 mm 4 mps 733 mmHg 87%
    15:00 +1°C° 0.4 mm 4 mps 733 mmHg 87%
    16:00 0°C° 0.4 mm 4 mps 734 mmHg 87%
    17:00 0°C° 0.4 mm 4 mps 734 mmHg 87%
    18:00 0°C° 0.3 mm 4 mps 735 mmHg 87%
    19:00 0°C° 0.3 mm 4 mps 735 mmHg 88%
    20:00 0°C° 0.3 mm 4 mps 735 mmHg 88%
    21:00 +1°C° 0.2 mm 3 mps 736 mmHg 88%
    22:00 +1°C° 0.2 mm 3 mps 736 mmHg 89%
    23:00 +1°C° 0.2 mm 3 mps 736 mmHg 89%

    23 November, Friday

    Time Temperature Precipitation Wind Pressure Humidity
    00:00 +1°C° 0.2 mm 3 mps 736 mmHg 89%
    01:00 +1°C° 0.2 mm 3 mps 737 mmHg 89%
    02:00 0°C° 0.2 mm 3 mps 737 mmHg 90%
    03:00 0°C° 0.1 mm 3 mps 737 mmHg 90%
    04:00 0°C° 0.1 mm 3 mps 737 mmHg 90%
    05:00 0°C° 0.1 mm 3 mps 737 mmHg 90%
    06:00 0°C° 0.1 mm 3 mps 737 mmHg 90%
    07:00 0°C° 0.1 mm 3 mps 738 mmHg 89%
    08:00 -1°C° 0.1 mm 2 mps 738 mmHg 89%
    09:00 +1°C° 0 mm 2 mps 738 mmHg 86%
    10:00 +2°C° 0 mm 2 mps 739 mmHg 83%
    11:00 +2°C° 0 mm 2 mps 739 mmHg 80%
    12:00 +3°C° 0 mm 2 mps 739 mmHg 77%
    13:00 +3°C° 0 mm 2 mps 738 mmHg 74%
    14:00 +4°C° 0 mm 2 mps 738 mmHg 71%
    15:00 +3°C° 0 mm 2 mps 738 mmHg 73%
    16:00 +3°C° 0 mm 2 mps 738 mmHg 75%
    17:00 +2°C° 0 mm 2 mps 738 mmHg 77%
    18:00 +2°C° 0 mm 2 mps 738 mmHg 77%
    19:00 +2°C° 0 mm 1 mps 738 mmHg 78%
    20:00 +2°C° 0 mm 1 mps 738 mmHg 79%
    21:00 +1°C° 0 mm 1 mps 738 mmHg 79%
    22:00 +1°C° 0 mm 1 mps 738 mmHg 79%
    23:00 +1°C° 0 mm 1 mps 738 mmHg 79%
    Show more